Welcome to the New NWS' Forecast!
Most changes are behind the scenes, but click here for differences you might notice.
Latest weather observations around

Bakersfield, Meadows Field Airport (KBFL)

Using English Units (Switch to International System of Units)
Date/ Time (PST) Wind (mph) Vis. (mi) Weather Sky Cond. Temp (°F) Rel. Humidity Wind Chill (°F) Heat Index (°F) Pressure Precip. (in)
Air Dwpt 6 hour Altimeter (inHg) Sea level (inHg) 1 hr 3 hr 6 hr
Max Min
Dec 09 10:54 NW 6 3 Haze CLR 52 45     77%     30.32 30.32      
Dec 09 10:14 Calm 3 Haze FEW011 51 44     77%     30.34        
Dec 09 09:54 3 3 Haze BKN011 50 44     80%     30.35 30.35      
Dec 09 08:54 Calm 3 Haze BKN011 50 44     80%     30.36 30.36      
Dec 09 07:54 3 3 Haze OVC011 50 44     80%     30.35 30.35      
Dec 09 06:54 Calm 5 Haze OVC011 50 43     77%     30.35 30.35      
Dec 09 05:54 S 5 4 Haze OVC011 50 44     80%     30.34 30.34      
Dec 09 04:54 Calm 5 Haze OVC011 50 45     83%     30.32 30.32      
Dec 09 03:54 Calm 5 Haze OVC011 50 45     83%     30.32 30.32      
Dec 09 02:54 N 3 5 Haze OVC012 50 45     83%     30.32 30.31      
Dec 09 02:12 N 3 4 Fog/Mist OVC013 50 46     86%     30.32        
Dec 09 01:54 NNE 5 3 Fog/Mist OVC016 48 44     86% 46   30.32 30.32      
Dec 09 01:37 NNE 3 3 Fog/Mist BKN016 47 44     90% 46   30.32        
Dec 09 01:03 NNE 3 2.5 Fog/Mist CLR 48 45     89% 47   30.31        
Dec 09 00:54 NNE 3 3 Fog/Mist CLR 48 45     89% 47   30.31 30.31      
Dec 09 00:43 Calm 3 Fog/Mist SCT013 49 45     86%     30.31        
Dec 08 23:54 Calm 3 Fog/Mist OVC014 50 46     86%     30.32 30.32      
Dec 08 23:37 SE 3 3 Fog/Mist OVC014 50 46     86%     30.33        
Dec 08 22:54 SE 3 4 Fog/Mist OVC016 50 47     89%     30.34 30.34      
Dec 08 21:54 S 5 6 Haze OVC017 52 47     83%     30.35 30.35      
Dec 08 20:54 N 3 6 Fog/Mist OVC018 51 47     86%     30.34 30.34      
Dec 08 19:54 NW 5 5 Fog/Mist OVC018 50 46     86%     30.33 30.33      
Dec 08 18:54 NW 6 4 Fog/Mist OVC019 49 46     90% 46   30.32 30.32      
Dec 08 18:33 NW 7 5 Fog/Mist BKN019 50 46     86%     30.32        
Dec 08 17:54 NNW 5 5 Fog/Mist CLR 50 46     86%     30.31 30.31      
Dec 08 17:40 N 3 5 Haze SCT019 51 46     83%     30.31        
Dec 08 16:54 NW 6 5 Haze FEW012 OVC019 52 47     83%     30.31 30.3      
Dec 08 16:36 NW 6 5 Haze SCT012 OVC019 52 47     83%     30.3        
Dec 08 16:20 WNW 8 5 Haze BKN013 OVC019 53 47     80%     30.3        
Dec 08 15:54 NW 6 5 Haze FEW012 OVC019 53 47     80%     30.29 30.29      
Dec 08 14:54 NW 7 5 Haze OVC017 54 47     77%     30.29 30.29      
Dec 08 14:32 NW 7 5 Haze BKN015 54 48     80%     30.29        
Dec 08 13:54 WNW 6 5 Haze OVC011 53 48     83%     30.3 30.29      
Dec 08 13:08 NNW 9 5 Haze OVC010 54 48     80%     30.3        
Dec 08 12:54 NW 9 5 Haze OVC009 53 48     83%     30.3 30.3      
Dec 08 11:54 NW 8 4 Fog/Mist OVC009 52 48     86%     30.32 30.32      
Dec 08 11:29 WNW 8 4 Fog/Mist SCT003 OVC008 52 48     86%     30.33        
Dec 08 11:22 WNW 8 3 Fog/Mist OVC004 50 48     93%     30.33        
Dec 08 11:04 WNW 6 2 Fog/Mist OVC002 49 47     93% 46   30.34        
Dec 08 10:54 WNW 5 1 Fog/Mist OVC002 48 47     96% 46   30.34 30.34      
Dec 08 10:41 NW 3 1.25 Fog/Mist OVC002 48 46     93% 47   30.34        
Dec 08 10:14 Calm 2 Fog/Mist OVC002 46 44     93%     30.35        
Dec 08 10:05 3 1.75 Fog/Mist OVC002 46 44     93% 45   30.35        
Dec 08 09:54 Calm 1.25 Fog/Mist OVC002 45 44     97%     30.35 30.35      
Dec 08 09:50 Calm 1 Fog/Mist OVC002 46 45     93%     30.35        
Dec 08 09:40 Calm 1.5 Clear   46 45     96%     30.35        
Dec 08 09:38 Calm 1 Clear   45 45     100%     30.35        
Dec 08 09:33 Calm 0.25 Clear   45 44     97%     30.35        
Dec 08 08:54 Calm 0.25 Clear   43 42     97%     30.35 30.35      
Dec 08 07:54 Calm 0.25 Fog VV001 42 41     96%     30.33 30.33      
Dec 08 06:54 Calm 0.25 Fog VV001 43 42     97%     30.33 30.33      
Dec 08 05:54 Calm 0.25 Fog VV001 44 43     96%     30.33 30.33      
Dec 08 04:54 SE 3 0.25 Fog VV001 45 44     97% 44   30.32 30.32      
Dec 08 03:54 SE 3 0.25 Fog VV001 46 45     96% 45   30.31 30.31      
Dec 08 02:54 SSE 5 0.25 Fog VV001 47 45     93% 45   30.31 30.3      
Dec 08 01:54 E 3 0.25 Fog VV001 45 44     97% 44   30.29 30.29      
Dec 08 01:38 SSE 6 0.25 Fog VV001 44 43     96% 41   30.29        
Dec 08 01:21 S 6 0.25 Fog VV002 44 41     89% 41   30.29        
Dec 08 01:03 Calm 0.5 Fog VV002 44 42     93%     30.28        
Dec 08 00:54 Calm 0.25 Fog VV001 44 42     93%     30.28 30.27      
Dec 08 00:46 SE 3 0.25 Fog VV002 43 42     97% 41   30.28        
Dec 08 00:39 Calm 0.5 Fog VV002 44 42     93%     30.28        
Dec 08 00:26 ENE 3 0.75 Fog/Mist VV003 44 42     93% 43   30.28        
Dec 08 00:19 Calm 1.5 Fog/Mist BKN004 45 43     93%     30.28        
Dec 08 00:13 E 3 0.5 Fog VV004 44 43     96% 43   30.28        
Dec 08 00:06 E 3 0.25 Fog VV003 45 43     93% 44   30.28        
Dec 07 23:56 Calm 0.75 Fog/Mist OVC002 45 44     97%     30.28        
Dec 07 23:49 ENE 3 1.5 Fog/Mist OVC002 46 44     93% 45   30.28 30.28      
Dec 07 23:48 E 3 1.5 Fog/Mist OVC002 46 45     93% 45   30.28        
Dec 07 23:37 Calm 0.5 Fog VV002 46 44     93%     30.28        
Dec 07 23:33 SE 3 0.25 Fog VV003 46 44     93% 45   30.28        
Dec 07 23:24 SE 3 0.25 Fog OVC004 46 44     93% 45   30.28        
Dec 07 23:13 SSE 5 1 Fog/Mist OVC004 46 44     93% 44   30.28        
Dec 07 23:05 Calm 0.75 Fog/Mist OVC006 45 44     97%     30.29        
Dec 07 22:58 Calm 0.5 Fog BKN006 45 43     93%     30.28        
Dec 07 22:54 Calm 0.25 Fog VV006 45 43     93%     30.28 30.28      
Dec 07 22:46 Calm 0.5 Fog VV007 45 44     97%     30.28        
Dec 07 22:39 E 3 0.75 Fog/Mist FEW005 SCT009 46 43     89% 45   30.28        
Dec 07 22:31 Calm 1 Fog/Mist VV006 45 43     93%     30.28        
Dec 07 22:27 Calm 1.75 Fog/Mist SCT005 45 43     93%     30.28        
Dec 07 22:23 Calm 2.5 Fog/Mist BKN005 45 43     93%     30.28        
Dec 07 22:04 Calm 2 Fog/Mist SCT005 46 44     93%     30.27        
Dec 07 21:56 Calm 2 Fog/Mist BKN005 46 44     93%     30.26        
Dec 07 21:54 Calm 1.25 Fog/Mist BKN005 47 44     90%     30.26 30.26      
Dec 07 21:34 E 3 0.25 Fog FEW002 BKN007 46 44     93% 45   30.26        
Dec 07 21:29 Calm 1 Fog/Mist FEW002 SCT007 46 44     93%     30.26        
Dec 07 21:13 Calm 2 Fog/Mist SCT002 47 44     90%     30.26        
Dec 07 20:54 Calm 2 Fog/Mist CLR 47 44     90%     30.26 30.26      
Dec 07 19:54 WNW 5 4 Fog/Mist CLR 47 44     90% 45   30.25 30.25      
Dec 07 18:54 NE 5 4 Fog/Mist CLR 50 46     86%     30.23 30.23      
Dec 07 18:04 NNW 5 5 Fog/Mist SCT014 51 47     86%     30.22        
Dec 07 17:54 N 5 5 Fog/Mist BKN014 51 47     86%     30.22 30.22      
Dec 07 17:46 Calm 6 Haze OVC014 53 47     80%     30.22        
Dec 07 17:16 Calm 7 Cloudy OVC015 53 47     80%     30.21        
Dec 07 16:54 Calm 5 Haze OVC014 53 47     80%     30.21 30.21      
Dec 07 15:54 Calm 6 Haze OVC012 53 47     80%     30.19 30.19      
Dec 07 15:25 Calm 6 Haze BKN012 OVC018 53 47     80%     30.19        
Dec 07 15:07 W 6 6 Haze OVC015 53 47     80%     30.19        
Dec 07 14:54 W 6 5 Haze BKN012 OVC018 53 47     80%     30.18 30.18      
Dec 07 13:54 NNW 3 6 Haze OVC010 53 48     83%     30.17 30.17      
Dec 07 13:47 W 3 6 Haze OVC010 53 47     80%     30.17        
Dec 07 12:54 Calm 3 Fog/Mist OVC007 52 48     86%     30.17 30.16      
Dec 07 11:54 W 5 3 Fog/Mist OVC005 52 48     86%     30.18 30.17      
Dec 07 11:52 WNW 6 3 Fog/Mist OVC005 52 48     87%     30.18        
Dec 07 11:37 W 5 2 Fog/Mist OVC005 51 48     89%     30.18        
Dec 07 10:54 NW 5 2 Fog/Mist OVC003 50 47     89%     30.18 30.18      
Dec 07 10:40 WNW 6 2 Fog/Mist OVC002 49 47     93% 46   30.19        
Dec 07 10:27 NW 3 1.5 Fog/Mist OVC002 49 46     90% 48   30.19        
Dec 07 10:02 NNW 5 0.75 Fog/Mist OVC002 48 46     93% 46   30.19        
Dec 07 09:54 NNW 3 1 Fog/Mist OVC002 48 46     93% 47   30.18 30.18      
Dec 07 09:36 WNW 6 0.5 Fog VV002 48 46     93% 45   30.18        
Dec 07 09:17 Calm 0.25 Fog VV002 47 46     97%     30.16        
Dec 07 08:54 N 5 0.25 Fog VV002 48 46     93% 46   30.15 30.15      
Dec 07 08:50 5 0.25 Fog VV002 48 46     93% 46   30.15        
Dec 07 08:43 Calm 0.5 Fog OVC002 48 46     93%     30.14        
Dec 07 07:54 Calm 1 Fog/Mist OVC002 48 46     93%     30.13 30.13      
Dec 07 07:19 Calm 1.25 Fog/Mist OVC003 48 46     93%     30.12        
Dec 07 07:08 Calm 1.5 Fog/Mist BKN003 47 45     93%     30.12        
Dec 07 06:54 S 3 1.75 Fog/Mist FEW005 46 44     93% 45   30.11 30.11      
Dec 07 06:52 S 3 1.75 Fog/Mist FEW005 46 45     93% 45   30.11        
Dec 07 06:24 SSE 3 2.5 Fog/Mist SCT002 48 45     89% 47   30.11        
Dec 07 06:13 ESE 3 2.5 Fog/Mist BKN002 48 45     89% 47   30.11        
Dec 07 06:01 Calm 1.5 Fog/Mist OVC002 48 46     93%     30.11        
Dec 07 05:54 E 3 1.25 Fog/Mist OVC002 48 46     93% 47   30.11 30.1      
Dec 07 05:05 SE 9 1.75 Fog/Mist OVC002 48 46     93% 44   30.09        
Dec 07 04:50 SE 7 1 Fog/Mist OVC002 48 46     93% 45   30.09 30.08      
Dec 07 04:49 SE 6 1 Fog/Mist VV002 48 46     93% 46   30.09        
Dec 07 04:40 SE 5 0.5 Fog VV002 48 46     93% 46   30.09        
Dec 07 04:35 SE 3 0.25 Fog VV002 48 46     93% 47   30.09        
Dec 07 04:23 Calm 0.25 Fog VV002 48 47     96%     30.09        
Dec 07 04:21 Calm 0.5 Fog VV002 48 47     96%     30.09        
Dec 07 04:13 SW 3 0.75 Fog/Mist OVC001 48 46     93% 47   30.09        
Dec 07 04:04 SW 3 1.25 Fog/Mist OVC002 48 46     93% 47   30.08        
Dec 07 03:54 SSW 3 0.75 Fog/Mist OVC002 48 47     96% 47   30.08 30.08      
Dec 07 03:51 SSW 5 0.75 Fog/Mist OVC002 48 46     93% 46   30.08        
Dec 07 03:44 SSW 6 1 Fog/Mist OVC002 48 46     93% 45   30.07        
Dec 07 03:29 S 7 1.75 Fog/Mist OVC002 48 46     93% 45   30.07        
Dec 07 03:18 S 7 2 Fog/Mist OVC003 48 46     93% 45   30.07        
Dec 07 03:07 SW 5 3 Fog/Mist BKN004 OVC080 49 46     90% 47   30.07        
Dec 07 02:54 Calm 3 Fog/Mist FEW004 OVC080 48 46     93%     30.07 30.07      
Dec 07 01:54 Calm 3 Fog/Mist OVC080 48 46     93%     30.07 30.06      
Dec 07 00:03 NNW 6 4 Fog/Mist OVC080 47 45     93% 44   30.04        
Dec 06 23:54 NNW 5 2 Fog/Mist FEW001 OVC080 47 45     93% 45   30.04 30.04      
Dec 06 23:49 NNW 5 1 Fog/Mist SCT001 OVC080 46 45     93% 44   30.05        
Dec 06 23:42 NNW 5 0.25 Fog SCT001 OVC080 46 45     96% 44   30.04        
Dec 06 22:54 NNW 5 0.25 Fog VV001 48 46     93% 46   30.03 30.02      
Dec 06 22:38 W 3 0.25 Fog BKN002 BKN080 48 46     93% 47   30.02        
Dec 06 22:27 W 3 0.5 Fog FEW004 BKN080 48 46     93% 47   30.02        
Dec 06 22:20 Calm 1.25 Fog/Mist FEW002 BKN080 49 46     90%     30.02        
Dec 06 21:54 S 5 9 Cloudy SCT075 OVC090 50 46     86%     30.01 30.01      
Dec 06 20:54 Calm 8 Cloudy OVC070 51 47     86%     30 29.99      
Dec 06 19:54 E 6 8 Partly Cloudy SCT070 52 46     80%     29.98 29.97      
Dec 06 18:54 NNE 11 9 Partly Cloudy SCT070 52 47     83%     29.98 29.97      
Dec 06 17:54 N 13 10 Cloudy OVC070 53 47     80%     29.97 29.96      
Dec 06 16:54 N 10 10 Cloudy OVC070 52 47     83%     29.95 29.95      
Dec 06 15:54 N 13 10 Cloudy OVC070 53 46     77%     29.94 29.93     0
Dec 06 14:54 N 11 10 Cloudy SCT070 OVC080 54 47     77%     29.92 29.91      
Dec 06 13:54 N 9 10 Cloudy OVC070 54 48     80%     29.91 29.91      
Dec 06 12:54 SE 6 10 Cloudy SCT075 OVC095 53 46     77%     29.91 29.91 0 0  
Dec 06 11:54 E 6 10 Light Rain SCT046 BKN065 OVC080 52 44     74%     29.92 29.91 0    
Dec 06 10:54 ESE 9 3 Heavy Rain BKN050 OVC065 50 45     83%     29.97 29.97 0    
Dec 06 09:54 SSW 3 6 Light Rain and Fog/Mist OVC070 51 47     86%     29.97 29.97 0   0
Dec 06 08:54 Calm 9 Light Rain OVC080 51 46     83%     29.94 29.94 0    
Dec 06 07:54 ENE 3 10 Light Rain OVC090 50 46     86%     29.93 29.92 0    
Dec 06 06:54 NNE 3 10 Light Rain OVC075 50 45     83%     29.92 29.91 0 0  
Dec 06 05:54 NNW 3 10 Cloudy SCT075 OVC090 50 45     83%     29.9 29.9 0    
Dec 06 04:54 Calm 8 Light Rain OVC070 50 44     80%     29.9 29.89 0    
Dec 06 03:54 SSE 3 10 Light Rain OVC070 51 43     74%     29.9 29.89 0   0
Dec 06 02:54 SSE 5 10 Light Rain BKN075 OVC090 53 42     66%     29.9 29.89 0    
Dec 06 01:54 SE 5 10 Light Rain OVC075 52 42     69%     29.89 29.88 0    
Dec 06 00:54 SSE 5 10 Cloudy OVC085 53 39     59%     29.89 29.88 0 0  
Dec 05 23:54 SSE 9 10 Cloudy OVC080 53 40     61%     29.88 29.87      
Dec 05 22:54 E 3 10 Cloudy OVC080 53 45     74%     29.88 29.88      
Dec 05 21:54 Calm 10 Partly Cloudy FEW070 SCT090 52 47     83%     29.89 29.88     0
Dec 05 20:54 Calm 10 Cloudy BKN070 OVC095 54 46     74%     29.88 29.87 0    
Dec 05 19:54 S 6 10 Light Rain OVC075 55 46     72%     29.88 29.87 0    
Dec 05 18:54 SE 5 10 Light Rain OVC070 55 42     62%     29.86 29.85 0 0  
Dec 05 17:54 S 8 10 Cloudy BKN070 OVC090 55 46     72%     29.85 29.84 0    
Dec 05 16:54 NW 3 10 Cloudy OVC075 55 47     74%     29.83 29.83      
Dec 05 15:54 N 7 10 Cloudy BKN080 BKN100 OVC120 58 45     62%     29.83 29.82 0   0
Dec 05 14:54 NNE 5 10 Light Rain OVC075 59 43     55%     29.83 29.82 0    
Dec 05 13:54 NNW 7 10 Light Rain OVC080 60 43     53%     29.84 29.83 0    
Dec 05 12:54 NNW 8 10 Mostly Cloudy BKN080 62 38     41%     29.84 29.83 0 0  
Dec 05 11:54 N 5 10 Cloudy FEW065 OVC085 61 33     35%     29.86 29.85      
Dec 05 10:54 SSE 9 10 Cloudy BKN075 OVC090 59 33     37%     29.88 29.87 0    
Dec 05 09:54 SSE 14 10 Cloudy OVC080 61 26     26%     29.9 29.89     0
Dec 05 08:54 SE 11 10 Cloudy BKN080 OVC110 60 33     36%     29.88 29.87      
Dec 05 07:54 SE 14 10 Mostly Clear FEW100 56 29     35%     29.86 29.85 0    
Dec 05 06:54 SE 11 10 Light Rain BKN075 OVC090 57 38     49%     29.86 29.85 0 0  
Dec 05 05:54 ESE 8 10 Light Rain OVC070 58 33     39%     29.86 29.85 0    
Dec 05 04:54 SE 13 10 Partly Cloudy FEW070 SCT100 57 31     37%     29.86 29.85      
Dec 05 03:54 SE 16 10 Mostly Clear FEW085 56 26     31%     29.86 29.85     0
Dec 05 02:54 ESE 20 10 Mostly Cloudy and Windy BKN095 61 26     26%     29.87 29.85      
Dec 05 01:54 ESE 17 10 Partly Cloudy SCT110 61 24     24%     29.87 29.86      
Dec 05 00:54 ESE 22 10 Cloudy and Windy SCT065 OVC080 61 20     20%     29.9 29.89   0  
Dec 04 23:54 ESE 6 10 Cloudy FEW070 OVC085 58 24     27%     29.94 29.93 0    
Dec 04 22:54 SSE 6 10 Cloudy FEW070 OVC100 57 27     31%     29.97 29.96      
Dec 04 21:54 E 6 10 Mostly Cloudy FEW075 BKN100 58 32     37%     29.99 29.98      
Dec 04 20:54 SE 8 10 Partly Cloudy SCT110 61 20     20%     29.97 29.96      
Dec 04 19:54 SSE 14 10 Mostly Clear FEW120 61 19     20%     29.95 29.93      
Dec 04 18:54 ESE 21 10 Clear and Windy CLR 63 17     17%     29.92 29.91      
Dec 04 17:54 ESE 23 10 Clear and Windy CLR 63 17     17%     29.88 29.87      
Dec 04 16:54 ESE 24 10 Clear and Windy CLR 64 17     16%     29.9 29.89      
Dec 04 15:54 ESE 20 10 Clear and Windy CLR 64 17     16%     29.9 29.89      
Dec 04 14:54   10 Clear CLR 65 18     16%     29.93 29.92      
Dec 04 13:54   10 Clear CLR 66 18     16%     29.92 29.91      
Dec 04 12:54   10 Clear CLR 67 19     16%     29.94 29.93      
Dec 04 11:54   10 Clear CLR 68 19     15%     29.97 29.96      
Dec 04 10:54   10 Clear CLR 66 20     17%     30.01 30      
Dec 04 09:54   10 Clear CLR 62 21     20%     30.03 30.03     0
Dec 04 08:54 ESE 21 10 Clear and Windy CLR 61 21     21%     30.04 30.03      
Dec 04 07:54 ESE 16 10 Mostly Clear FEW120 58 22     25%     30.05 30.05 0    
Dec 04 06:54 ESE 17 10 Clear CLR 57        %     30.04 30.03      
Dec 04 05:54 SE 13 10 Clear CLR 50 32     50%     30.04 30.03      
Dec 04 04:54 Calm 7 Clear CLR 45 40     82%     30.05 30.05      
Dec 04 03:54 Calm 6 Fog/Mist CLR 45 41     86%     30.07 30.06      
Dec 04 02:54 S 7 6 Haze CLR 46 41     82% 42   30.09 30.08      
Dec 04 01:54 Calm 8 Clear CLR 47 41     80%     30.09 30.09      
Dec 04 00:54 Calm 8 Clear CLR 46 41     82%     30.1 30.09      
Dec 03 23:54 Calm 8 Clear CLR 47 41     80%     30.1 30.1      
Dec 03 22:54 E 5 10 Clear CLR 49 41     74% 47   30.1 30.1      
Dec 03 21:54 Calm 10 Clear CLR 50 41     71%     30.12 30.12      
Dec 03 20:54 NE 5 10 Clear CLR 50 41     71%     30.12 30.11      
Dec 03 19:54 WNW 6 10 Clear CLR 49 42     77% 46   30.12 30.12      
Dec 03 18:54 NNW 6 10 Clear CLR 50 42     74%     30.12 30.12      
Dec 03 17:54 NNE 5 10 Clear CLR 54 40     59%     30.13 30.13      
Dec 03 16:54 NNW 5 10 Clear CLR 56 41     57%     30.12 30.11      
Dec 03 15:54 NNW 8 10 Clear CLR 59 41     51%     30.11 30.1      
Dec 03 14:54 NE 6 10 Clear CLR 61 40     46%     30.1 30.09      
Dec 03 13:54 Calm 10 Clear CLR 59 39     47%     30.12 30.11      
Dec 03 12:54 SW 3 10 Clear CLR 57 39     51%     30.13 30.13      
Dec 03 11:54 W 6 10 Clear CLR 56 39     53%     30.16 30.15      
Dec 03 10:54 WNW 6 10 Clear CLR 55 39     55%     30.19 30.18      
Dec 03 09:54 WNW 3 10 Clear CLR 52 41     66%     30.2 30.2      
Dec 03 08:54 W 5 10 Clear CLR 51 40     65%     30.2 30.19      
Dec 03 07:54 NW 6 10 Clear CLR 45 40     82% 42   30.18 30.18      
Dec 03 06:54 Calm 10 Clear CLR 44 39     82%     30.18 30.18      
Dec 03 05:54 E 3 10 Clear CLR 45 39     80% 44   30.17 30.16      
Dec 03 04:54 ESE 3 10 Clear CLR 47 39     74% 46   30.17 30.17      
Dec 03 03:54 ESE 3 10 Clear CLR 47 40     76% 46   30.18 30.18      
Dec 03 02:54 Calm 10 Clear CLR 47 40     76%     30.2 30.19      
Dec 03 01:54 Calm 10 Clear CLR 47 41     80%     30.2 30.2      
Dec 03 00:54 Calm 10 Clear CLR 46 40     79%     30.18 30.18      
Dec 02 23:54 SE 3 10 Clear CLR 46 40     79% 45   30.18 30.18      
Dec 02 22:54 E 6 10 Clear CLR 47 39     74% 44   30.19 30.19      
Dec 02 21:54 NE 7 10 Clear CLR 47 40     76% 44   30.19 30.19      
Dec 02 20:54 NNE 5 10 Clear CLR 47 40     76% 45   30.18 30.18      
Dec 02 19:54 NNE 6 10 Clear CLR 49 40     71% 46   30.18 30.18      
Dec 02 18:54 N 7 10 Clear CLR 49 40     71% 46   30.16 30.16      
Dec 02 17:54 N 7 10 Clear CLR 50 39     66%     30.14 30.14      
Dec 02 16:54 NNW 6 10 Clear CLR 51 41     68%     30.12 30.12      
Dec 02 15:54 NW 8 10 Clear CLR 54 39     57%     30.1 30.1      
Dec 02 14:54 NW 6 10 Mostly Clear FEW050 56 39     53%     30.09 30.09      
Dec 02 13:54 NNW 7 10 Clear CLR 56 40     55%     30.1 30.09      
Dec 02 12:54 6 10 Mostly Cloudy BKN050 54 44     69%     30.11 30.11      
Dec 02 11:54 Calm 10 Cloudy OVC050 51 44     77%     30.13 30.13      
Dec 02 10:54 WNW 6 10 Cloudy SCT010 OVC047 50 44     80%     30.15 30.15      
Dec 02 10:42 WNW 6 10 Cloudy SCT010 OVC047 50 44     80%     30.16        
Dec 02 10:34 NW 6 8 Cloudy BKN009 OVC047 49 44     83% 46   30.15        
Dec 02 09:54 WNW 3 6 Fog/Mist SCT007 OVC047 49 45     86% 48   30.15 30.14      
Dec 02 09:38 W 5 5 Fog/Mist SCT007 OVC048 48 45     89% 46   30.15        
Dec 02 09:01 Calm 5 Fog/Mist BKN007 BKN035 OVC049 47 45     93%     30.13        
Dec 02 08:54 Calm 4 Fog/Mist SCT006 BKN037 OVC049 47 44     90%     30.13 30.13      
Dec 02 08:27 Calm 4 Fog/Mist FEW003 BKN038 OVC047 46 45     96%     30.11        
Dec 02 08:12 Calm 3 Fog/Mist SCT003 BKN007 OVC038 46 44     93%     30.11        
Dec 02 08:02 WSW 3 2 Fog/Mist SCT002 OVC038 46 44     93% 45   30.11        
Dec 02 07:54 Calm 2 Fog/Mist BKN036 OVC047 46 44     93%     30.1 30.1      
Dec 02 07:32 Calm 1.75 Fog/Mist FEW001 OVC035 45 44     97%     30.09        
Dec 02 07:25 Calm 2 Fog/Mist SCT001 OVC034 45 43     93%     30.09        
Dec 02 07:19 ENE 3 1.5 Fog/Mist BKN001 OVC034 45 43     93% 44   30.09        
Dec 02 07:14 NNE 3 0.5 Fog BKN001 OVC034 45 43     93% 44   30.09        
Dec 02 06:54 Calm 0.25 Fog VV001 45 44     97%     30.08 30.08      
Dec 02 06:42 Calm 0.25 Fog VV001 45 43     93%     30.08        
Dec 02 06:26 N 6 0.25 Fog VV001 45 43     93% 42   30.07        
Dec 02 06:15 NNW 6 0.75 Fog/Mist VV002 45 43     93% 42   30.07        
Dec 02 06:00 NNW 6 0.25 Fog BKN003 BKN028 44 42     93% 41   30.06        
Dec 02 05:54 N 6 0.75 Fog/Mist FEW007 BKN028 44 42     93% 41   30.06 30.05      
Dec 02 05:36 NNW 5 1.25 Fog/Mist BKN027 44 42     93% 41   30.05        
Dec 02 05:30 NNW 3 1.75 Fog/Mist FEW027 44 42     93% 43   30.05        
Dec 02 05:23 WNW 3 3 Fog/Mist FEW034 45 43     93% 44   30.04        
Dec 02 05:01 W 5 2.5 Fog/Mist BKN031 46 43     89% 44   30.04        
Dec 02 04:54 W 5 3 Fog/Mist BKN031 46 44     93% 44   30.04 30.03      
Dec 02 04:50 W 5 3 Fog/Mist BKN029 46 45     93% 44   30.04        
Dec 02 03:54 WNW 5 7 Cloudy SCT009 BKN032 OVC055 47 44     90% 45   30.03 30.03      
Dec 02 03:36 NNW 3 7 Cloudy SCT009 BKN032 OVC055 47 44     90% 46   30.03        
Dec 02 02:54 NNW 6 7 Cloudy OVC005 48 44     86% 45   30.03 30.03      
Dec 02 02:12 NNW 5 5 Fog/Mist OVC004 47 45     93% 45   30.03        
Dec 02 01:54 N 7 5 Fog/Mist OVC005 47 45     93% 44   30.03 30.02      
Dec 02 01:15 NNE 5 6 Fog/Mist OVC005 48 45     89% 46   30.02        
Dec 02 00:54 NNW 7 5 Fog/Mist OVC004 48 45     89% 45   30.02 30.01      
Dec 02 00:18 NNW 8 5 Fog/Mist OVC004 48 45     89% 44   30.02        
Dec 01 23:54 N 7 8 Cloudy OVC006 48 45     89% 45   30.02 30.02      
Dec 01 23:00 NW 3 6 Fog/Mist BKN007 BKN010 47 44     90% 46   30.02        
Dec 01 22:54 WNW 3 7 Partly Cloudy SCT010 47 44     90% 46   30.03 30.02      
Dec 01 22:16 N 5 8 Cloudy FEW004 OVC008 49 46     90% 47   30.02        
Dec 01 22:08 N 3 8 Mostly Cloudy FEW003 BKN010 48 45     89% 47   30.01        
Dec 01 21:54 Calm 5 Fog/Mist BKN003 48 46     93%     30.01 30.01     0
Dec 01 21:07 3 10 Mostly Cloudy BKN003 48 45     89% 47   30        
Dec 01 20:54 N 5 10 Mostly Clear FEW007 47 44     90% 45   29.99 29.99      
Dec 01 19:54 W 6 10 Mostly Cloudy FEW075 BKN095 50 45     83%     29.98 29.98      
Dec 01 18:54 N 5 10 Cloudy FEW055 BKN075 OVC085 51 44     77%     29.96 29.95 0 0  
Dec 01 18:02 NNE 13 10 Cloudy FEW026 BKN042 OVC049 51 45     79%     29.94   0    
Dec 01 17:54 NNE 11 10 Light Rain FEW018 BKN028 OVC043 51 46     83%     29.94 29.94 0    
Dec 01 17:43 NNE 13 10 Light Rain FEW015 BKN030 OVC039 50 45     83%     29.94   0    
Dec 01 17:26   9 Light Rain SCT016 BKN024 OVC030 53 47     80%     29.93   0    
Dec 01 17:02 W 3 2.5 Heavy Rain BKN026 OVC034 53 45     74%     29.92   0    
Dec 01 16:54 SW 5 9 Light Rain BKN030 OVC039 54 45     72%     29.92 29.91 0    
Dec 01 15:54 SSW 6 10 Cloudy OVC047 58 40     51%     29.93 29.92      
Dec 01 14:54 Calm 10 Cloudy OVC070 58 39     49%     29.94 29.94      
Dec 01 13:54 WSW 6 10 Cloudy OVC065 58 40     51%     29.96 29.96      
Dec 01 12:54 WNW 3 10 Clear CLR 58 40     51%     29.99 29.98      
Dec 01 11:54 5 10 Mostly Clear FEW032 56 41     57%     30.03 30.02      
Dec 01 10:54 NW 5 10 Clear CLR 54 41     61%     30.07 30.06      
Dec 01 09:54 WNW 5 10 Clear CLR 54 41     61%     30.09 30.09      
Dec 01 08:54 Calm 10 Clear CLR 52 41     66%     30.09 30.08      
Dec 01 07:54 NNE 3 10 Clear CLR 48 42     80% 47   30.1 30.1      
Dec 01 06:54 NNE 5 10 Cloudy OVC031 50 42     74%     30.09 30.09      
Dec 01 05:54 N 6 10 Partly Cloudy SCT029 48 43     83% 45   30.09 30.09      
Dec 01 04:54 NNW 3 10 Cloudy OVC032 49 45     86% 48   30.08 30.07      
Dec 01 03:54 Calm 10 Cloudy OVC033 48 44     86%     30.07 30.06      
Dec 01 02:54 N 3 10 Mostly Clear FEW035 46 42     86% 45   30.07 30.07      
Dec 01 01:54 N 5 10 Partly Cloudy SCT065 49 44     83% 47   30.07 30.07      
Dec 01 00:54 NW 3 10 Cloudy OVC055 50 46     86%     30.08 30.08      
Nov 30 23:54 NNW 5 10 Cloudy OVC055 51 46     83%     30.09 30.08      
Nov 30 22:54 NNW 3 10 Cloudy OVC050 51 46     83%     30.09 30.08      
Nov 30 21:54 N 3 10 Cloudy OVC035 51 46     83%     30.08 30.08      
Nov 30 20:54 NNW 5 10 Mostly Clear FEW037 50 45     83%     30.07 30.07      
Nov 30 19:54 Calm 10 Mostly Cloudy BKN070 53 46     77%     30.05 30.05      
Nov 30 18:54 WNW 5 10 Cloudy OVC070 54 46     74%     30.05 30.04      
Nov 30 17:54 N 6 10 Partly Cloudy SCT065 54 46     74%     30.04 30.03      
Nov 30 16:54 NNW 6 10 Mostly Cloudy FEW043 BKN070 56 46     69%     30.03 30.02      
Nov 30 15:54 NW 10 10 Cloudy OVC060 57 45     64%     30.03 30.02      
Nov 30 14:54 NW 9 10 Cloudy FEW038 OVC060 58 45     62%     30.01 30      
Nov 30 13:54 WNW 7 10 Cloudy FEW035 OVC060 58 45     62%     30.01 30.01      
Nov 30 12:54   10 Cloudy FEW045 OVC055 57 45     64%     30.02 30.01      
Nov 30 11:54 WNW 10 10 Cloudy OVC055 57 46     67%     30.01 30      
Nov 30 10:54 NNW 13 10 Mostly Cloudy FEW022 SCT036 BKN060 57 47     69%     30.01 30.01      
Nov 30 09:54 NNW 11 10 Cloudy SCT013 OVC055 56 49     77%     30.02 30.01     0
Nov 30 08:54 NW 8 10 Cloudy OVC014 54 49     83%     30 30      
Nov 30 08:37 WNW 10 10 Cloudy BKN016 OVC060 54 49     83%     30        
Nov 30 07:54 NW 6 10 Cloudy FEW018 SCT048 OVC060 53 49     86%     29.98 29.98      
Nov 30 07:16 NW 5 10 Cloudy FEW022 BKN041 OVC050 52 49     89%     29.96        
Nov 30 06:54 WNW 3 10 Cloudy BKN022 OVC028 53 49     86%     29.95 29.94   0  
Nov 30 06:46 Calm 10 Cloudy BKN022 OVC042 53 49     86%     29.95        
Nov 30 05:54 Calm 10 Cloudy BKN046 BKN055 OVC075 53 49     86%     29.91 29.91      
Nov 30 04:54 NNW 5 10 Cloudy SCT044 OVC065 53 48     83%     29.88 29.88 0    
Nov 30 03:54 NNW 5 10 Mostly Cloudy SCT038 BKN050 52 48     86%     29.87 29.86     0
Nov 30 02:54 N 6 10 Cloudy SCT041 OVC055 54 48     80%     29.85 29.85      
Nov 30 01:54 N 3 10 Cloudy BKN034 OVC044 54 49     83%     29.84 29.83 0    
Nov 30 00:54 NW 5 10 Cloudy OVC055 53 48     83%     29.82 29.8 0 0  
Nov 29 23:54 WNW 7 10 Cloudy BKN050 OVC070 55 47     74%     29.8 29.79      
Nov 29 22:54 W 5 10 Cloudy OVC049 55 48     77%     29.78 29.77      
Nov 29 21:54 W 5 10 Clear   55 48     77%     29.76 29.75     0
Nov 29 20:54 WSW 5 10 Cloudy BKN037 OVC044 56 49     77%     29.74 29.73 0    
Nov 29 19:54 S 8 10 Cloudy OVC041 56 50     80%     29.72 29.71      
Nov 29 18:54 SE 8 10 Mostly Cloudy BKN039 BKN048 56 50     80%     29.69 29.68 0 0  
Nov 29 17:54 ESE 7 10 Light Rain OVC044 56 49     77%     29.68 29.67 0    
Nov 29 16:54 E 8 10 Light Rain FEW042 BKN055 BKN090 56 48     75%     29.68 29.67 0    
Nov 29 15:54 ENE 6 10 Light Rain SCT046 OVC055 57 49     74%     29.69 29.68 0   0
Nov 29 14:54 WSW 9 10 Light Rain BKN060 OVC075 57 48     72%     29.69 29.68 0    
Nov 29 13:54 W 3 10 Mostly Cloudy FEW040 SCT055 BKN120 61 46     58%     29.66 29.65 0    
Nov 29 12:54 Calm 10 Cloudy FEW045 BKN060 OVC075 63 45     52%     29.69 29.68   0  
Nov 29 11:54 WSW 5 10 Mostly Cloudy BKN065 BKN080 62 46     56%     29.72 29.71 0    
Nov 29 10:54 W 5 10 Light Rain FEW049 OVC065 60 47     62%     29.75 29.74 0    
Nov 29 09:54 3 10 Light Rain FEW040 BKN075 OVC090 57 50     77%     29.76 29.75 0   0
Nov 29 08:54 NE 6 10 Mostly Cloudy SCT065 SCT090 BKN110 61 49     64%     29.75 29.73      
Nov 29 07:54 WNW 10 10 Cloudy OVC065 61 50     67%     29.74 29.73      
Nov 29 06:54 NNW 6 10 Cloudy BKN055 OVC090 58 52     81%     29.72 29.71 0 0  
Nov 29 05:54 S 5 9 Light Rain BKN050 OVC070 57 53     87%     29.7 29.7 0    
Nov 29 05:18 WSW 10 3 Light Rain and Fog/Mist OVC041 57 54     89%     29.69   0    
Nov 29 05:10 NW 8 1.75 Heavy Rain and Fog/Mist FEW024 SCT038 OVC047 55 53     93%     29.69   0    
Nov 29 04:54 WNW 11 5 Light Rain and Fog/Mist OVC055 55 52     89%     29.67 29.66 0    
Nov 29 03:54 SE 6 5 Fog/Mist SCT002 SCT080 BKN110 55 52     89%     29.66 29.65     0
Nov 29 03:22 SE 8 4 Fog/Mist BKN003 BKN070 OVC090 54 52     93%     29.66        
Nov 29 03:12 SE 8 6 Fog/Mist SCT003 BKN070 OVC090 54 52     93%     29.66        
Nov 29 02:54 SE 6 9 Mostly Cloudy BKN070 BKN080 55 53     93%     29.68 29.67 0    
Nov 29 01:54 S 5 10 Light Rain OVC085 56 53     90%     29.71 29.7 0    
Nov 29 00:54 NE 6 10 Light Rain BKN060 OVC075 57 52     83%     29.74 29.73 0 0  
Nov 28 23:54 N 9 9 Light Rain OVC070 56 53     90%     29.77 29.76 0    
Nov 28 22:54 NW 8 6 Light Rain OVC065 57 52     83%     29.81 29.8 0    
Nov 28 21:54 SE 5 10 Cloudy OVC085 59 51     75%     29.79 29.78 0   0
Nov 28 20:54 E 6 10 Cloudy OVC080 60 50     69%     29.82 29.81 0    
Nov 28 19:54 ESE 7 10 Cloudy OVC095 60 50     69%     29.82 29.82      
Nov 28 18:54 ESE 9 9 Cloudy OVC100 58 52     81%     29.83 29.83   0  
Nov 28 17:54 SE 11 5 Fog/Mist FEW008 OVC085 57 53     87%     29.87 29.86 0    
Nov 28 17:46 SE 10 3 Fog/Mist SCT008 OVC085 57 53     87%     29.88   0    
Nov 28 16:54 SE 13 3 Light Rain and Fog/Mist BKN009 OVC085 57 53     87%     29.88 29.88 0    
Nov 28 16:49 SE 13 2.5 Light Rain and Fog/Mist BKN009 OVC085 57 54     88%     29.89   0    
Nov 28 16:40 SE 9 2.5 Fog/Mist SCT009 OVC085 57 54     89%     29.9        
Nov 28 16:24 SE 9 2.5 Fog/Mist OVC085 58 54     87%     29.9        
Nov 28 15:54 SE 6 3 Haze OVC080 58 53     84%     29.91 29.91 0   0
Nov 28 14:54 Calm 3 Fog/Mist FEW008 BKN070 OVC090 57 53     87%     29.94 29.93      
Nov 28 14:35 Calm 3 Fog/Mist FEW006 BKN015 OVC090 57 53     87%     29.93        
Nov 28 14:16 SSW 6 2.5 Fog/Mist SCT006 BKN010 OVC015 57 53     87%     29.94        
Nov 28 13:54 SW 7 2 Fog/Mist OVC006 56 53     90%     29.93 29.93 0    
Nov 28 13:44 WSW 6 2 Fog/Mist OVC006 56 54     93%     29.93   0    
Nov 28 12:54 SSW 10 1.5 Fog/Mist OVC007 57 53     87%     29.95 29.94   0  
Nov 28 12:27 SW 10 1.75 Fog/Mist BKN007 OVC021 57 53     87%     29.95        
Nov 28 12:08 SSW 8 2.5 Fog/Mist FEW009 OVC020 58 54     87%     29.95        
Nov 28 11:54 SSW 6 3 Haze BKN020 OVC070 58 53     84%     29.95 29.95 0    
Nov 28 11:19 NNE 7 3 Haze OVC075 58 52     81%     29.94   0    
Nov 28 10:54 NNE 8 2.5 Light Rain FEW043 BKN070 OVC085 57 52     83%     29.95 29.95 0    
Nov 28 10:38 NE 10 1.5 Rain and Fog/Mist FEW007 BKN043 OVC080 55 52     89%     29.95   0    
Nov 28 10:32 NNE 13 1 Heavy Rain and Fog/Mist FEW007 BKN039 OVC055 55 52     89%     29.96   0    
Nov 28 10:20   1.75 Light Rain and Fog/Mist FEW008 BKN038 OVC048 55 51     86%     29.98   0    
Nov 28 10:06   2 Light Rain OVC050 56 51     84%     29.96   0    
Nov 28 09:54   4 Haze OVC055 60 50     69%     29.96 29.95 0   0
Nov 28 08:54 Calm 4 Haze OVC050 59 47     64%     29.93 29.92      
Nov 28 07:54 SE 3 4 Haze FEW095 52 46     80%     29.93 29.92      
Nov 28 06:54 ESE 3 4 Haze OVC055 55 45     69%     29.92 29.91      
Nov 28 05:54 E 6 5 Haze BKN060 52 45     77%     29.93 29.92      
Nov 28 04:54 ENE 3 5 Haze CLR 51 45     79%     29.95 29.94      
Nov 28 03:54 E 7 5 Haze CLR 52 45     77%     29.95 29.94      
Nov 28 02:54 ESE 6 6 Haze CLR 52 45     77%     29.97 29.96      
Nov 28 01:54 SE 7 3 Fog/Mist CLR 50 46     86%     30 29.98      
Nov 28 00:54 Calm 4 Haze CLR 52 46     80%     30.01 30      
Nov 27 23:54 Calm 4 Haze CLR 52 46     80%     30.02 30.01      
Nov 27 22:54 Calm 5 Haze CLR 54 47     77%     30.02 30.01      
Nov 27 21:54 Calm 5 Haze CLR 54 46     74%     30.02 30.01      
Nov 27 20:54 Calm 5 Haze CLR 56 47     72%     30.03 30.02      
Nov 27 19:54 NE 6 5 Haze CLR 56 47     72%     30.02 30.01      
Nov 27 18:54 ENE 5 6 Haze CLR 57 47     69%     30.02 30.01      
Nov 27 17:54 Calm 6 Haze CLR 60 47     62%     30.02 30.01      
Nov 27 16:54 Calm 5 Haze CLR 64 47     54%     30.02 30.01      
Nov 27 15:54 W 3 5 Haze CLR 68 46     45%     30.02 30.01      
Nov 27 14:54 Calm 6 Haze CLR 69 46     44%     30.02 30.01      
Nov 27 13:54 Calm 6 Clear   68 46     45%     30.04 30.03      
Nov 27 12:54 Calm 5 Haze CLR 67 47     49%     30.05 30.04      
Nov 27 11:54 Calm 5 Clear   66 49     54%     30.07 30.06      
Nov 27 10:54 NW 3 4 Haze CLR 64 50     60%     30.1 30.09      
Nov 27 09:54 Calm 5 Haze CLR 60 48     64%     30.11 30.1      
Nov 27 08:54 Calm 5 Haze CLR 56 47     72%     30.11 30.11      
Nov 27 07:54 ESE 5 5 Haze CLR 50 44     80%     30.12 30.11      
Nov 27 07:12 SE 7 3 Fog/Mist CLR 49 45     86% 46   30.12        
Nov 27 06:54 ESE 7 2.5 Fog/Mist CLR 49 45     86% 46   30.12 30.11      
Nov 27 05:54 SE 5 3 Fog/Mist CLR 50 46     86%     30.11 30.1      
Nov 27 04:54 W 3 4 Fog/Mist CLR 49 45     86% 48   30.1 30.09      
Nov 27 03:54 NE 6 5 Haze CLR 54 47     77%     30.09 30.08      
Nov 27 02:54 NNE 5 4 Haze CLR 52 47     83%     30.1 30.09      
Nov 27 01:54 Calm 4 Fog/Mist CLR 53 49     86%     30.11 30.1      
Nov 27 00:54 Calm 4 Haze CLR 54 49     83%     30.12 30.11      
Nov 26 23:54 E 6 5 Haze CLR 57 49     74%     30.14 30.13      
Nov 26 22:54 Calm 5 Haze CLR 55 49     80%     30.16 30.15      
Nov 26 21:54 SE 6 5 Haze CLR 56 50     80%     30.16 30.16      
Nov 26 20:54 SE 6 5 Haze CLR 55 49     80%     30.16 30.16      
Nov 26 19:54 Calm 5 Haze CLR 58 50     75%     30.16 30.15      
Nov 26 18:54 SSW 3 5 Haze CLR 60 51     72%     30.14 30.14      
Nov 26 17:54 Calm 6 Haze CLR 61 51     70%     30.12 30.12      
Nov 26 16:54 W 5 5 Haze CLR 63 51     65%     30.12 30.11      
Nov 26 15:54 S 6 5 Haze CLR 66 50     56%     30.1 30.09      
Nov 26 14:54 Calm 7 Clear CLR 68 49     50%     30.11 30.1      
Nov 26 13:54 Calm 7 Clear CLR 67 48     51%     30.12 30.11      
Nov 26 12:54 6 7 Clear CLR 66 48     52%     30.15 30.14      
Nov 26 11:54 WSW 3 6 Haze CLR 63 50     63%     30.16 30.15      
Nov 26 10:54 Calm 4 Haze CLR 59 51     75%     30.19 30.18      
Nov 26 09:54 3 3 Haze CLR 55 50     83%     30.22 30.21      
Nov 26 08:54 SSE 6 3 Haze CLR 53 48     83%     30.21 30.21      
Nov 26 07:54 ESE 3 3 Fog/Mist CLR 49 47     93% 48   30.21 30.2      
Nov 26 07:33 Calm 2.5 Fog/Mist CLR 48 46     93%     30.21        
Nov 26 07:19 Calm 1.5 Fog/Mist FEW004 47 46     97%     30.21        
Nov 26 07:17 SSE 3 1 Fog/Mist VV004 47 46     97% 46   30.21        
Nov 26 07:11 SE 3 0.25 Fog VV005 47 45     93% 46   30.2        
Nov 26 07:01 SSE 3 0.25 Fog VV004 47 45     93% 46   30.2        
Nov 26 06:54 Calm 0.25 Fog VV005 47 45     93%     30.2 30.19      
Nov 26 06:48 Calm 0.25 Fog VV005 46 45     93%     30.2        
Nov 26 06:30 Calm 0.5 Fog VV003 47 45     93%     30.19        
Nov 26 06:14 Calm 0.25 Fog VV002 47 46     97%     30.2        
Nov 26 06:07 Calm 0.25 Fog VV004 47 46     97%     30.19        
Nov 26 05:54 NNE 3 0.5 Fog VV006 48 46     93% 47   30.19 30.18      
Nov 26 05:49 Calm 0.25 Fog VV005 48 46     93%     30.19        
Nov 26 05:29 E 3 0.25 Fog VV002 49 47     93% 48   30.18        
Nov 26 04:54 Calm 0.25 Fog VV001 50 48     93%     30.18 30.17      
Nov 26 04:44 E 3 0.5 Fog OVC002 50 48     93%     30.18        
Nov 26 04:35 Calm 0.25 Fog VV003 49 47     93%     30.18        
Nov 26 04:29 Calm 0.75 Fog/Mist SCT002 BKN006 49 47     93%     30.17        
Nov 26 04:27 Calm 1.75 Fog/Mist SCT002 BKN008 49 47     93%     30.17        
Nov 26 04:21 Calm 2 Fog/Mist FEW002 BKN010 50 47     89%     30.17        
Nov 26 04:05 SE 5 2 Fog/Mist FEW012 50 46     86%     30.17        
Nov 26 03:54 SSE 3 3 Fog/Mist CLR 50 46     86%     30.16 30.15      
Nov 26 02:54 Calm 3 Fog/Mist CLR 50 47     89%     30.16 30.15      
Nov 26 02:38 Calm 3 Fog/Mist CLR 51 47     86%     30.17        
Nov 26 02:17 Calm 2.5 Fog/Mist CLR 50 47     89%     30.16        
Nov 26 01:54 Calm 3 Fog/Mist CLR 51 48     89%     30.16 30.15      
Nov 26 00:54 NE 8 4 Fog/Mist CLR 53 49     86%     30.15 30.14      
Nov 25 23:54 E 6 4 Haze CLR 56 51     84%     30.15 30.14      
Nov 25 22:54 E 3 4 Haze CLR 56 51     84%     30.15 30.14      
Nov 25 21:54 E 5 5 Haze CLR 57 52     83%     30.14 30.14      
Nov 25 20:54 ENE 3 5 Haze CLR 57 51     81%     30.14 30.13      
Nov 25 19:54 Calm 6 Haze OVC034 60 53     78%     30.14 30.13      
Nov 25 18:54 SE 3 5 Haze OVC033 59 53     81%     30.12 30.11      
Nov 25 17:54 ESE 5 6 Haze CLR 60 53     78%     30.1 30.09      
Nov 25 16:54 SE 8 5 Haze CLR 61 54     78%     30.08 30.07      
Nov 25 15:54 S 3 9 Clear   66 51     59%     30.06 30.05      
Nov 25 14:54 SW 3 10 Mostly Clear FEW033 65 51     61%     30.05 30.04      
Nov 25 13:54 Calm 8 Clear CLR 66 52     61%     30.04 30.03      
Nov 25 13:17 WSW 5 8 Mostly Clear FEW021 FEW028 64 52     65%     30.04        
Nov 25 12:54 W 7 7 Mostly Cloudy BKN020 64 53     67%     30.04 30.03      
Nov 25 12:25 WSW 5 6 Haze BKN021 64 54     70%     30.04        
Nov 25 11:54 SW 6 8 Mostly Clear FEW018 62 53     72%     30.05 30.04      
Nov 25 09:54 W 3 4 Fog/Mist FEW007 58 54     87%     30.08 30.07      
May 13 14:54 WNW 10 10 Clear CLR 80 45     29%   79 29.91 29.89      
May 12 17:54 WNW 17 10 Clear CLR 82 38     21%   80 29.8 29.79      
May 12 12:54 WSW 6 10 Clear CLR 78 41     27%   77 29.87 29.85      
May 12 00:54 E 6 10 Clear CLR 67 43     42%     29.76 29.74      
Jun 11 23:54 N 18 10 Mostly Cloudy BKN080 61 42     50%     29.98 29.97      
Jun 11 09:54 NNW 13 10 Mostly Clear FEW039 64 43     46%     29.93 29.92      
Jun 11 07:54 NNW 15 10 Clear CLR 61 44     54%     29.91 29.9      
Jun 10 21:54 N 6 10 Clear CLR 71 46     41%   70 29.84 29.82      
Jun 10 18:54 NW 10 10 Clear CLR 77 46     33%   76 29.82 29.8      
Jun 10 15:54 W 10 10 Clear CLR 77 47     35%   76 29.85 29.84      
Jun 10 08:54 NW 8 10 Cloudy OVC048 63 43     48%     29.96 29.94      
Jun 08 21:54 NW 14 10 Clear   76 48     37%   75 29.92 29.9      
Jun 08 14:01 W 10 9 Mostly Clear FEW001 87 37     17%   84 29.94        
Jun 08 11:54 W 7 10 Clear CLR 81 46     29%   80 29.97 29.95      
Jun 08 06:54 ENE 5 10 Clear CLR 69 46     44%     29.97 29.95      
Jun 07 08:54 3 10 Clear CLR 78 45     31%   77 29.87 29.85